| time (UTC) | temp C | wind direction | speed KPH | gust KPH | rain 1hr cm | rain 24hr cm | rain mn cm | humidity % | barometer mb |
| 20260505071248 | 11 | 23 | 0.0 | 0.0 | 0.00 | 0.00 | 0.00 | 81 | 1011.4 |
| 20260505070746 | 11 | 23 | 0.0 | 0.0 | 0.00 | 0.00 | 0.00 | 81 | 1011.5 |
| 20260505070242 | 11 | 23 | 0.0 | 0.0 | 0.00 | 0.00 | 0.00 | 81 | 1011.4 |
| 20260505065737 | 11 | 24 | 0.0 | 0.0 | 0.00 | 0.00 | 0.00 | 80 | 1011.3 |
| 20260505065235 | 11 | 23 | 0.0 | 0.0 | 0.00 | 0.00 | 0.00 | 80 | 1011.3 |
| 20260505064732 | 11 | 23 | 0.0 | 0.0 | 0.00 | 0.00 | 0.00 | 80 | 1011.4 |
| 20260505064229 | 11 | 24 | 0.0 | 0.0 | 0.00 | 0.00 | 0.00 | 80 | 1011.5 |
| 20260505063727 | 11 | 24 | 0.0 | 0.0 | 0.00 | 0.00 | 0.00 | 79 | 1011.3 |
| 20260505063223 | 11 | 24 | 0.0 | 0.0 | 0.00 | 0.00 | 0.00 | 79 | 1011.6 |
| 20260505062719 | 11 | 24 | 0.0 | 0.0 | 0.00 | 0.00 | 0.00 | 78 | 1011.6 |
| 20260505062217 | 11 | 24 | 0.0 | 0.0 | 0.00 | 0.00 | 0.00 | 78 | 1011.4 |
| 20260505061714 | 11 | 24 | 0.0 | 0.0 | 0.00 | 0.00 | 0.00 | 78 | 1011.4 |
| 20260505061212 | 12 | 23 | 0.0 | 0.0 | 0.00 | 0.00 | 0.00 | 78 | 1011.6 |
| 20260505060709 | 12 | 24 | 0.0 | 0.0 | 0.00 | 0.00 | 0.00 | 78 | 1011.5 |
| 20260505060205 | 12 | 24 | 0.0 | 0.0 | 0.00 | 0.00 | 0.00 | 77 | 1011.4 |
| 20260505055701 | 12 | 24 | 0.0 | 0.0 | 0.00 | 0.00 | 0.00 | 77 | 1011.5 |
| 20260505055158 | 12 | 24 | 0.0 | 1.6 | 0.00 | 0.00 | 0.00 | 77 | 1011.3 |
| 20260505054655 | 12 | 24 | 0.0 | 0.0 | 0.00 | 0.00 | 0.00 | 77 | 1011.5 |
| 20260505054153 | 12 | 23 | 0.0 | 0.0 | 0.00 | 0.00 | 0.00 | 77 | 1011.3 |
| 20260505053650 | 12 | 23 | 0.0 | 0.0 | 0.00 | 0.00 | 0.00 | 76 | 1011.6 |
| 20260505053147 | 12 | 24 | 0.0 | 0.0 | 0.00 | 0.00 | 0.00 | 76 | 1011.5 |
| 20260505052644 | 12 | 23 | 0.0 | 0.0 | 0.00 | 0.00 | 0.00 | 75 | 1011.6 |
| 20260505052141 | 12 | 23 | 0.0 | 0.0 | 0.00 | 0.00 | 0.00 | 74 | 1011.7 |
| 20260505051637 | 12 | 24 | 0.0 | 0.0 | 0.00 | 0.00 | 0.00 | 74 | 1011.7 |
| 20260505051136 | 12 | 24 | 0.0 | 0.0 | 0.00 | 0.00 | 0.00 | 74 | 1011.7 |
| 20260505050633 | 13 | 23 | 0.0 | 0.0 | 0.00 | 0.00 | 0.00 | 73 | 1011.5 |
| 20260505050132 | 13 | 23 | 0.0 | 0.0 | 0.00 | 0.00 | 0.00 | 73 | 1011.7 |
| 20260505041601 | 13 | 23 | 0.0 | 0.0 | 0.00 | 0.00 | 0.00 | 70 | 1011.6 |
| 20260505041059 | 13 | 23 | 0.0 | 0.0 | 0.00 | 0.00 | 0.00 | 70 | 1011.6 |
| 20260505040556 | 13 | 23 | 0.0 | 0.0 | 0.00 | 0.00 | 0.00 | 70 | 1011.7 |
| 20260505040053 | 13 | 23 | 0.0 | 0.0 | 0.00 | 0.00 | 0.00 | 70 | 1011.5 |
| 20260505035549 | 13 | 23 | 0.0 | 1.6 | 0.00 | 0.00 | 0.00 | 70 | 1011.6 |
| 20260505035046 | 13 | 23 | 0.0 | 0.0 | 0.00 | 0.00 | 0.00 | 69 | 1011.3 |
| 20260505034542 | 13 | 23 | 0.0 | 1.6 | 0.00 | 0.00 | 0.00 | 69 | 1011.5 |
| 20260505034039 | 13 | 23 | 0.0 | 0.0 | 0.00 | 0.00 | 0.00 | 69 | 1011.5 |
| 20260505033536 | 13 | 23 | 0.0 | 0.0 | 0.00 | 0.00 | 0.00 | 68 | 1011.5 |
| 20260505033034 | 13 | 23 | 0.0 | 0.0 | 0.00 | 0.00 | 0.00 | 68 | 1011.6 |
| 20260505032532 | 14 | 23 | 0.0 | 0.0 | 0.00 | 0.00 | 0.00 | 68 | 1011.7 |
| 20260505032028 | 14 | 23 | 0.0 | 0.0 | 0.00 | 0.00 | 0.00 | 68 | 1011.5 |
| 20260505031526 | 14 | 23 | 0.0 | 0.0 | 0.00 | 0.00 | 0.00 | 67 | 1011.4 |
| 20260505031022 | 14 | 23 | 0.0 | 0.0 | 0.00 | 0.00 | 0.00 | 67 | 1011.5 |
| 20260505030519 | 14 | 23 | 0.0 | 0.0 | 0.00 | 0.00 | 0.00 | 66 | 1011.4 |
| 20260505030015 | 14 | 23 | 0.0 | 0.0 | 0.00 | 0.00 | 0.00 | 66 | 1011.5 |
| 20260505025511 | 14 | 23 | 0.0 | 0.0 | 0.00 | 0.00 | 0.00 | 66 | 1011.4 |
| 20260505025010 | 15 | 23 | 0.0 | 0.0 | 0.00 | 0.00 | 0.00 | 65 | 1011.3 |
| 20260505024506 | 15 | 23 | 0.0 | 0.0 | 0.00 | 0.00 | 0.00 | 64 | 1011.3 |
| 20260505024004 | 15 | 23 | 0.0 | 0.0 | 0.00 | 0.00 | 0.00 | 64 | 1011.3 |
| 20260505023500 | 15 | 23 | 0.0 | 0.0 | 0.00 | 0.00 | 0.00 | 63 | 1011.5 |
| 20260505022958 | 15 | 23 | 0.0 | 0.0 | 0.00 | 0.00 | 0.00 | 62 | 1011.4 |
| 20260505022455 | 15 | 23 | 0.0 | 0.0 | 0.00 | 0.00 | 0.00 | 62 | 1011.4 |
| 20260505021952 | 15 | 23 | 0.0 | 0.0 | 0.00 | 0.00 | 0.00 | 62 | 1011.2 |
| 20260505021449 | 15 | 23 | 0.0 | 0.0 | 0.00 | 0.00 | 0.00 | 62 | 1011.5 |
| 20260505020944 | 15 | 23 | 0.0 | 0.0 | 0.00 | 0.00 | 0.00 | 61 | 1011.2 |
| 20260505020440 | 15 | 23 | 0.0 | 0.0 | 0.00 | 0.00 | 0.00 | 60 | 1011.2 |
| 20260505015937 | 16 | 23 | 0.0 | 0.0 | 0.00 | 0.00 | 0.00 | 59 | 1011.2 |
| 20260505015434 | 16 | 23 | 0.0 | 0.0 | 0.00 | 0.00 | 0.00 | 59 | 1011.2 |
| 20260505014931 | 16 | 23 | 0.0 | 0.0 | 0.00 | 0.00 | 0.00 | 58 | 1011.0 |
| 20260505014428 | 16 | 23 | 0.0 | 0.0 | 0.00 | 0.00 | 0.00 | 58 | 1011.0 |
| 20260505013925 | 16 | 23 | 0.0 | 0.0 | 0.00 | 0.00 | 0.00 | 58 | 1011.2 |
| 20260505013422 | 16 | 23 | 0.0 | 0.0 | 0.00 | 0.00 | 0.00 | 58 | 1010.9 |
| 20260505012920 | 16 | 23 | 0.0 | 0.0 | 0.00 | 0.00 | 0.00 | 55 | 1010.9 |
| 20260505012418 | 17 | 23 | 0.0 | 0.0 | 0.00 | 0.00 | 0.00 | 55 | 1010.9 |
| 20260505011914 | 17 | 23 | 0.0 | 0.0 | 0.00 | 0.00 | 0.00 | 53 | 1010.7 |
| 20260505011410 | 17 | 23 | 0.0 | 0.0 | 0.00 | 0.00 | 0.00 | 53 | 1011.0 |
| 20260505010907 | 18 | 23 | 0.0 | 0.0 | 0.00 | 0.00 | 0.00 | 52 | 1010.8 |
| 20260505010403 | 18 | 23 | 0.0 | 1.6 | 0.00 | 0.00 | 0.00 | 50 | 1010.7 |
| 20260505005859 | 18 | 23 | 0.0 | 0.0 | 0.00 | 0.00 | 0.00 | 49 | 1010.7 |
| 20260505005356 | 18 | 23 | 3.2 | 3.2 | 0.00 | 0.00 | 0.00 | 49 | 1010.7 |
| 20260505004854 | 18 | 23 | 0.0 | 0.0 | 0.00 | 0.00 | 0.00 | 49 | 1010.6 |
| 20260505004350 | 19 | 23 | 1.6 | 1.6 | 0.00 | 0.00 | 0.00 | 48 | 1010.5 |
| 20260505003847 | 20 | 23 | 0.0 | 1.6 | 0.00 | 0.00 | 0.00 | 47 | 1010.4 |
| 20260505003344 | 20 | 23 | 0.0 | 0.0 | 0.00 | 0.00 | 0.00 | 44 | 1010.5 |
| 20260505002840 | 20 | 23 | 1.6 | 3.2 | 0.00 | 0.00 | 0.00 | 44 | 1010.4 |
| 20260505002337 | 20 | 23 | 0.0 | 1.6 | 0.00 | 0.00 | 0.00 | 44 | 1010.4 |
| 20260505001836 | 20 | 23 | 1.6 | 3.2 | 0.00 | 0.00 | 0.00 | 41 | 1010.5 |
| 20260505001332 | 21 | 23 | 3.2 | 4.8 | 0.00 | 0.00 | 0.00 | 41 | 1010.4 |
| 20260505000829 | 21 | 23 | 3.2 | 3.2 | 0.00 | 0.00 | 0.00 | 42 | 1010.5 |
| 20260505000327 | 21 | 23 | 1.6 | 3.2 | 0.00 | 0.00 | 0.00 | 41 | 1010.4 |
| 20260504235824 | 21 | 23 | 0.0 | 0.0 | 0.00 | 0.00 | 0.00 | 42 | 1010.4 |
| 20260504235321 | 21 | 23 | 3.2 | 6.4 | 0.00 | 0.00 | 0.00 | 40 | 1010.3 |
| 20260504234817 | 21 | 23 | 3.2 | 3.2 | 0.00 | 0.00 | 0.00 | 40 | 1010.4 |
| 20260504234315 | 21 | 23 | 1.6 | 3.2 | 0.00 | 0.00 | 0.00 | 40 | 1010.3 |
| 20260504233811 | 21 | 23 | 1.6 | 1.6 | 0.00 | 0.00 | 0.00 | 39 | 1010.2 |
| 20260504233307 | 21 | 23 | 1.6 | 1.6 | 0.00 | 0.00 | 0.00 | 39 | 1010.5 |
| 20260504232804 | 22 | 23 | 0.0 | 0.0 | 0.00 | 0.00 | 0.00 | 39 | 1010.3 |
| 20260504232303 | 22 | 23 | 1.6 | 3.2 | 0.00 | 0.00 | 0.00 | 38 | 1010.3 |
| 20260504231758 | 21 | 23 | 9.7 | 11.3 | 0.00 | 0.00 | 0.00 | 38 | 1010.3 |
| 20260504231254 | 22 | 23 | 1.6 | 3.2 | 0.00 | 0.00 | 0.00 | 40 | 1010.2 |
| 20260504230750 | 22 | 23 | 1.6 | 1.6 | 0.00 | 0.00 | 0.00 | 40 | 1010.3 |
| 20260504230249 | 22 | 23 | 3.2 | 4.8 | 0.00 | 0.00 | 0.00 | 39 | 1010.1 |
| 20260504225747 | 22 | 23 | 6.4 | 6.4 | 0.00 | 0.00 | 0.00 | 37 | 1010.2 |
| 20260504225243 | 22 | 23 | 0.0 | 0.0 | 0.00 | 0.00 | 0.00 | 38 | 1010.2 |
| 20260504224740 | 22 | 23 | 1.6 | 1.6 | 0.00 | 0.00 | 0.00 | 36 | 1010.2 |
| 20260504224237 | 23 | 23 | 4.8 | 6.4 | 0.00 | 0.00 | 0.00 | 36 | 1010.1 |
| 20260504223733 | 22 | 23 | 0.0 | 1.6 | 0.00 | 0.00 | 0.00 | 36 | 1010.3 |
| 20260504223229 | 22 | 23 | 4.8 | 4.8 | 0.00 | 0.00 | 0.00 | 36 | 1010.2 |
| 20260504222727 | 23 | 23 | 6.4 | 9.7 | 0.00 | 0.00 | 0.00 | 35 | 1010.3 |
| 20260504222223 | 23 | 23 | 8.0 | 9.7 | 0.00 | 0.00 | 0.00 | 35 | 1010.2 |
| 20260504221721 | 23 | 23 | 3.2 | 4.8 | 0.00 | 0.00 | 0.00 | 34 | 1010.0 |
| 20260504221218 | 23 | 23 | 1.6 | 3.2 | 0.00 | 0.00 | 0.00 | 34 | 1010.0 |
| 20260504220714 | 23 | 23 | 1.6 | 3.2 | 0.00 | 0.00 | 0.00 | 35 | 1010.0 |
| 20260504220212 | 23 | 23 | 4.8 | 6.4 | 0.00 | 0.00 | 0.00 | 34 | 1010.1 |
| 20260504215709 | 24 | 23 | 1.6 | 3.2 | 0.00 | 0.00 | 0.00 | 33 | 1010.0 |
| 20260504215206 | 25 | 23 | 1.6 | 3.2 | 0.00 | 0.00 | 0.00 | 32 | 1010.0 |
| 20260504214701 | 25 | 22 | 0.0 | 0.0 | 0.00 | 0.00 | 0.00 | 31 | 1010.1 |
| 20260504214158 | 25 | 22 | 3.2 | 4.8 | 0.00 | 0.00 | 0.00 | 32 | 1010.1 |
| 20260504213655 | 25 | 22 | 6.4 | 9.7 | 0.00 | 0.00 | 0.00 | 32 | 1010.3 |
| 20260504213151 | 25 | 22 | 1.6 | 1.6 | 0.00 | 0.00 | 0.00 | 31 | 1010.0 |
| 20260504212648 | 25 | 22 | 1.6 | 3.2 | 0.00 | 0.00 | 0.00 | 31 | 1010.0 |
| 20260504212144 | 25 | 22 | 3.2 | 3.2 | 0.00 | 0.00 | 0.00 | 32 | 1010.1 |
| 20260504211642 | 25 | 22 | 4.8 | 6.4 | 0.00 | 0.00 | 0.00 | 31 | 1010.2 |
| 20260504211138 | 25 | 22 | 3.2 | 4.8 | 0.00 | 0.00 | 0.00 | 31 | 1010.1 |
| 20260504210636 | 25 | 22 | 6.4 | 11.3 | 0.00 | 0.00 | 0.00 | 32 | 1010.2 |
| 20260504210132 | 25 | 22 | 0.0 | 0.0 | 0.00 | 0.00 | 0.00 | 32 | 1010.1 |
| 20260504205630 | 25 | 22 | 3.2 | 4.8 | 0.00 | 0.00 | 0.00 | 30 | 1010.3 |
| 20260504205127 | 25 | 22 | 3.2 | 4.8 | 0.00 | 0.00 | 0.00 | 32 | 1010.2 |
| 20260504204626 | 25 | 22 | 4.8 | 6.4 | 0.00 | 0.00 | 0.00 | 31 | 1010.3 |
| 20260504204124 | 25 | 22 | 3.2 | 9.7 | 0.00 | 0.00 | 0.00 | 31 | 1010.3 |
| 20260504203622 | 25 | 22 | 6.4 | 9.7 | 0.00 | 0.00 | 0.00 | 32 | 1010.2 |
| 20260504203120 | 25 | 22 | 3.2 | 4.8 | 0.00 | 0.00 | 0.00 | 31 | 1010.2 |
| 20260504202619 | 25 | 22 | 4.8 | 6.4 | 0.00 | 0.00 | 0.00 | 31 | 1010.5 |
| 20260504202116 | 25 | 22 | 3.2 | 4.8 | 0.00 | 0.00 | 0.00 | 31 | 1010.4 |
| 20260504201613 | 25 | 22 | 1.6 | 1.6 | 0.00 | 0.00 | 0.00 | 30 | 1010.8 |
| 20260504201111 | 25 | 22 | 3.2 | 4.8 | 0.00 | 0.00 | 0.00 | 33 | 1010.6 |
| 20260504200608 | 25 | 22 | 6.4 | 6.4 | 0.00 | 0.00 | 0.00 | 31 | 1010.7 |
| 20260504200104 | 25 | 22 | 6.4 | 6.4 | 0.00 | 0.00 | 0.00 | 30 | 1010.7 |
| 20260504195600 | 24 | 22 | 4.8 | 4.8 | 0.00 | 0.00 | 0.00 | 32 | 1010.9 |
| 20260504195057 | 24 | 22 | 1.6 | 11.3 | 0.00 | 0.00 | 0.00 | 31 | 1010.8 |
| 20260504194554 | 24 | 22 | 9.7 | 22.5 | 0.00 | 0.00 | 0.00 | 31 | 1010.8 |
| 20260504194049 | 25 | 22 | 4.8 | 6.4 | 0.00 | 0.00 | 0.00 | 31 | 1011.1 |
| 20260504193546 | 23 | 22 | 3.2 | 4.8 | 0.00 | 0.00 | 0.00 | 33 | 1010.9 |
| 20260504193045 | 24 | 22 | 9.7 | 11.3 | 0.00 | 0.00 | 0.00 | 31 | 1011.2 |
| 20260504192543 | 23 | 22 | 3.2 | 3.2 | 0.00 | 0.00 | 0.00 | 33 | 1011.3 |
| 20260504192040 | 23 | 22 | 1.6 | 3.2 | 0.00 | 0.00 | 0.00 | 33 | 1011.4 |
| 20260504191538 | 23 | 22 | 4.8 | 9.7 | 0.00 | 0.00 | 0.00 | 32 | 1011.5 |
| 20260504191034 | 24 | 22 | 9.7 | 11.3 | 0.00 | 0.00 | 0.00 | 31 | 1011.7 |
| 20260504190530 | 23 | 22 | 1.6 | 1.6 | 0.00 | 0.00 | 0.00 | 34 | 1011.6 |
| 20260504190026 | 23 | 23 | 9.7 | 14.5 | 0.00 | 0.00 | 0.00 | 32 | 1011.9 |
| 20260504185524 | 23 | 22 | 0.0 | 0.0 | 0.00 | 0.00 | 0.00 | 32 | 1011.8 |
| 20260504185020 | 23 | 23 | 11.3 | 16.1 | 0.00 | 0.00 | 0.00 | 33 | 1012.0 |
| 20260504184515 | 23 | 23 | 1.6 | 3.2 | 0.00 | 0.00 | 0.00 | 34 | 1012.3 |
| 20260504184011 | 23 | 23 | 12.9 | 16.1 | 0.00 | 0.00 | 0.00 | 33 | 1012.5 |
| 20260504183508 | 23 | 23 | 3.2 | 11.3 | 0.00 | 0.00 | 0.00 | 32 | 1012.4 |
| 20260504183007 | 23 | 23 | 6.4 | 11.3 | 0.00 | 0.00 | 0.00 | 34 | 1012.3 |
| 20260504182503 | 22 | 23 | 9.7 | 11.3 | 0.00 | 0.00 | 0.00 | 33 | 1012.3 |
| 20260504182000 | 23 | 23 | 11.3 | 14.5 | 0.00 | 0.00 | 0.00 | 31 | 1012.5 |
| 20260504181457 | 22 | 23 | 3.2 | 3.2 | 0.00 | 0.00 | 0.00 | 35 | 1012.4 |
| 20260504180956 | 22 | 23 | 3.2 | 3.2 | 0.00 | 0.00 | 0.00 | 35 | 1012.4 |
| 20260504180454 | 22 | 23 | 4.8 | 4.8 | 0.00 | 0.00 | 0.00 | 35 | 1012.9 |
| 20260504175952 | 22 | 23 | 6.4 | 12.9 | 0.00 | 0.00 | 0.00 | 34 | 1012.9 |
| 20260504175449 | 22 | 23 | 4.8 | 11.3 | 0.00 | 0.00 | 0.00 | 35 | 1012.7 |
| 20260504174947 | 22 | 23 | 4.8 | 4.8 | 0.00 | 0.00 | 0.00 | 33 | 1012.8 |
| 20260504174444 | 22 | 23 | 1.6 | 3.2 | 0.00 | 0.00 | 0.00 | 34 | 1012.9 |
| 20260504173941 | 22 | 23 | 4.8 | 6.4 | 0.00 | 0.00 | 0.00 | 35 | 1013.0 |
| 20260504173437 | 22 | 23 | 9.7 | 14.5 | 0.00 | 0.00 | 0.00 | 34 | 1013.0 |
| 20260504172935 | 22 | 23 | 4.8 | 4.8 | 0.00 | 0.00 | 0.00 | 34 | 1013.0 |
| 20260504172431 | 22 | 23 | 3.2 | 3.2 | 0.00 | 0.00 | 0.00 | 32 | 1013.2 |
| 20260504171928 | 22 | 23 | 6.4 | 9.7 | 0.00 | 0.00 | 0.00 | 33 | 1013.3 |
| 20260504171425 | 21 | 23 | 4.8 | 6.4 | 0.00 | 0.00 | 0.00 | 34 | 1013.3 |
| 20260504170922 | 21 | 23 | 6.4 | 6.4 | 0.00 | 0.00 | 0.00 | 33 | 1013.4 |
| 20260504170418 | 21 | 23 | 6.4 | 9.7 | 0.00 | 0.00 | 0.00 | 32 | 1013.2 |
| 20260504160337 | 21 | 23 | 1.6 | 3.2 | 0.00 | 0.00 | 0.00 | 33 | 1014.1 |
| 20260504150802 | 20 | 23 | 4.8 | 4.8 | 0.00 | 0.00 | 0.00 | 33 | 1014.5 |
| 20260504150258 | 20 | 23 | 1.6 | 1.6 | 0.00 | 0.00 | 0.00 | 38 | 1014.7 |
| 20260504141228 | 18 | 23 | 0.0 | 0.0 | 0.00 | 0.00 | 0.00 | 40 | 1014.8 |
| 20260504140725 | 17 | 23 | 1.6 | 1.6 | 0.00 | 0.00 | 0.00 | 38 | 1014.9 |
| 20260504140220 | 17 | 23 | 1.6 | 1.6 | 0.00 | 0.00 | 0.00 | 38 | 1014.7 |
| 20260504130649 | 15 | 23 | 1.6 | 3.2 | 0.00 | 0.00 | 0.00 | 47 | 1015.2 |
| 20260504130145 | 15 | 23 | 6.4 | 6.4 | 0.00 | 0.00 | 0.00 | 45 | 1015.3 |
| 20260504120110 | 11 | 24 | 0.0 | 0.0 | 0.00 | 0.00 | 0.00 | 63 | 1015.8 |
| 20260504110537 | 7 | 24 | 0.0 | 0.0 | 0.00 | 0.00 | 0.00 | 81 | 1015.6 |
| 20260504100459 | 7 | 24 | 0.0 | 0.0 | 0.00 | 0.00 | 0.00 | 80 | 1015.5 |
| 20260504081857 | 7 | 24 | 0.0 | 0.0 | 0.00 | 0.00 | 0.00 | 82 | 1016.0 |
| 20260504081354 | 7 | 24 | 0.0 | 0.0 | 0.00 | 0.00 | 0.00 | 82 | 1016.0 |
| 20260504080850 | 6 | 24 | 0.0 | 0.0 | 0.00 | 0.00 | 0.00 | 80 | 1015.9 |
| 20260504080347 | 6 | 24 | 0.0 | 0.0 | 0.00 | 0.00 | 0.00 | 78 | 1016.0 |